| time (UTC) | temp C | wind direction | speed KPH | gust KPH | rain 1hr cm | rain 24hr cm | rain mn cm | humidity % | barometer mb |
| 20260503030801 | 20 | 287 | 0.0 | 0.0 | 0.00 | 0.00 | 5.49 | 69 | 1019.4 |
| 20260503023802 | 20 | 288 | 0.0 | 8.0 | 0.00 | 0.00 | 5.49 | 69 | 1018.6 |
| 20260503020802 | 20 | 264 | 0.0 | 0.0 | 0.00 | 0.00 | 5.49 | 69 | 1018.6 |
| 20260503013802 | 20 | 359 | 0.0 | 6.4 | 0.00 | 0.00 | 5.49 | 69 | 1018.7 |
| 20260503010802 | 21 | 258 | 0.0 | 0.0 | 0.00 | 0.00 | 5.49 | 69 | 1018.9 |
| 20260503003802 | 21 | 254 | 0.0 | 0.0 | 0.00 | 0.00 | 5.46 | 69 | 1019.4 |
| 20260503000802 | 21 | 250 | 0.0 | 1.6 | 0.00 | 0.00 | 5.38 | 69 | 1019.3 |
| 20260502233802 | 21 | 359 | 0.0 | 0.0 | 0.00 | 0.00 | 5.31 | 69 | 1019.2 |
| 20260502230802 | 21 | 359 | 0.0 | 0.0 | 0.00 | 0.00 | 5.05 | 69 | 1019.5 |
| 20260502223801 | 22 | 359 | 0.0 | 6.4 | 0.00 | 0.00 | 4.85 | 69 | 1019.4 |
| 20260502220802 | 22 | 112 | 0.0 | 1.6 | 0.00 | 0.00 | 3.66 | 69 | 1019.7 |
| 20260502213802 | 23 | 359 | 0.0 | 9.7 | 0.00 | 0.00 | 1.93 | 69 | 1019.2 |
| 20260502210802 | 23 | 359 | 0.0 | 0.0 | 0.00 | 0.00 | 0.53 | 69 | 1018.2 |
| 20260502203802 | 25 | 89 | 4.8 | 14.5 | 0.00 | 0.00 | 0.03 | 69 | 1017.6 |
| 20260502200802 | 26 | 4 | 0.0 | 6.4 | 0.00 | 0.00 | 0.00 | 69 | 1017.0 |
| 20260502193801 | 26 | 4 | 0.0 | 6.4 | 0.00 | 0.00 | 0.00 | 69 | 1017.0 |
| 20260502190801 | 26 | 34 | 0.0 | 14.5 | 0.00 | 0.00 | 0.00 | 69 | 1017.3 |
| 20260502183802 | 26 | 18 | 8.0 | 8.0 | 0.00 | 0.00 | 0.00 | 69 | 1017.1 |
| 20260502180801 | 26 | 27 | 0.0 | 14.5 | 0.00 | 0.00 | 0.00 | 69 | 1017.8 |
| 20260502163802 | 25 | 354 | 0.0 | 16.1 | 0.00 | 0.00 | 0.00 | 69 | 1018.5 |
| 20260502160802 | 25 | 359 | 0.0 | 8.0 | 0.00 | 0.00 | 0.00 | 69 | 1019.2 |
| 20260502150802 | 25 | 359 | 0.0 | 16.1 | 0.00 | 0.00 | 0.00 | 69 | 1018.6 |
| 20260502123802 | 25 | 335 | 12.9 | 12.9 | 0.00 | 0.00 | 0.00 | 69 | 1016.7 |
| 20260502120802 | 25 | 322 | 0.0 | 22.5 | 0.00 | 0.00 | 0.00 | 69 | 1016.5 |
| 20260502113802 | 24 | 341 | 0.0 | 0.0 | 0.00 | 0.00 | 0.00 | 69 | 1015.8 |
| 20260502110802 | 24 | 335 | 0.0 | 0.0 | 0.00 | 0.00 | 0.00 | 69 | 1016.1 |
| 20260502103802 | 24 | 359 | 0.0 | 12.9 | 0.00 | 0.00 | 0.00 | 69 | 1016.2 |
| 20260502100801 | 25 | 341 | 9.7 | 19.3 | 0.00 | 0.00 | 0.00 | 69 | 1015.4 |
| 20260502090802 | 24 | 101 | 0.0 | 6.4 | 0.00 | 0.00 | 0.00 | 69 | 1013.8 |
| 20260502070802 | 24 | 267 | 0.0 | 3.2 | 0.00 | 0.00 | 0.00 | 69 | 1015.3 |
| 20260502063802 | 24 | 268 | 0.0 | 1.6 | 0.00 | 0.00 | 0.00 | 69 | 1015.9 |
| 20260502060801 | 24 | 268 | 0.0 | 0.0 | 0.00 | 0.00 | 0.00 | 69 | 1015.9 |
| 20260502053802 | 24 | 263 | 0.0 | 0.0 | 0.00 | 0.00 | 0.00 | 69 | 1016.3 |
| 20260502050802 | 24 | 269 | 0.0 | 0.0 | 0.00 | 0.00 | 0.00 | 69 | 1016.3 |
| 20260502043801 | 25 | 264 | 0.0 | 0.0 | 0.00 | 0.00 | 0.00 | 69 | 1016.6 |
| 20260502040802 | 25 | 270 | 0.0 | 0.0 | 0.00 | 0.00 | 0.00 | 69 | 1016.4 |
| 20260502033802 | 25 | 268 | 0.0 | 0.0 | 0.00 | 0.00 | 0.00 | 69 | 1016.6 |